Location: *
(38.9555°S, 57.3572°E)
Time: 01:56:35
(UTC+00:00)

Cosmos 1602 Rocket - Pass Details

Date: 15 July 2020
Orbit: 604 x 633 km, 82.5° (Epoch: 06 August)

Event Time Altitude Azimuth Distance (km) Brightness Sun altitude
Rises 14:43:35 0° 191° (S) 2,905 7.0 -18.3°
Reaches altitude 10° 14:45:50 10° 193° (SSW) 1,995 6.2 -18.7°
Maximum altitude 14:50:12 66° 274° (W) 681 3.9 -19.6°
Drops below altitude 10° 14:54:34 10° 356° (N) 1,982 6.3 -20.4°
Sets 14:56:47 0° 359° (N) 2,884 7.1 -20.8°
